Flag for Turkey Weather past 2 weeks in Mersin, Turkey

Now
73 °F

Passing clouds.


Feels Like: 75 °F
Forecast: 61 / 87 °F
Wind: 5 mph from Northeast

Location: Adana / Sakirpasa

Current Time: Sep 23, 2014 at 1:30:51 AM

Latest Report: Sep 23, 2014 at 12:50 AM


Visibility: N/A

Pressure: 29.86 "Hg

Humidity: 74%

Dew point: 64 °F

Location of MersinLocation

Historic Weather in Mersin — Graph

°F

Mersin temperature yesterday

Maximum temperature yesterday: 88 °F (at 12:50 PM)
Minimum temperature yesterday: 66 °F (at 5:20 AM)
Average temperature yesterday: 77 °F

Past Weeks' High & Low Weather Summary

 TemperatureHumidityPressure
High93 °F (Sep 13, 1:50 PM)94% (Sep 18, 4:50 PM)29.95 "Hg (Sep 18, 4:50 PM)
Low61 °F (Sep 21, 5:20 AM)20% (Sep 21, 10:50 AM)29.74 "Hg (Sep 14, 12:50 PM)
Average79 °F65%29.83 "Hg
* Reported Sep 8 12:50 AM — Sep 23 12:20 AM, Mersin, Weather by CustomWeather, © 2014

Note: Actual official high and low records may vary slightly from our data, if they occured in-between our weather recording intervals... More about our weather records

Advertising

Mersin weather history for previous 24 hours

 ConditionsComfort  
Time TempWeatherWind HumidityBarometerVisibility
12:20 AM
Sep 23
73 °FPassing clouds.5 mph74%29.86 "HgN/A
11:50 PM
Sep 22
73 °FPassing clouds.3 mph74%29.86 "HgN/A
11:20 PM73 °FPassing clouds.No wind74%29.86 "HgN/A
10:50 PM73 °FPassing clouds.3 mph74%29.86 "HgN/A
10:20 PM72 °FPassing clouds.No wind73%29.86 "HgN/A
9:50 PM73 °FPassing clouds.2 mph69%29.86 "HgN/A
9:20 PM73 °FPassing clouds.3 mph69%29.83 "HgN/A
8:50 PM73 °FPassing clouds.2 mph65%29.83 "HgN/A
8:20 PM75 °FPassing clouds.5 mph61%29.83 "HgN/A
7:50 PM75 °FPassing clouds.6 mph61%29.83 "HgN/A
7:20 PM77 °FPassing clouds.7 mph57%29.80 "HgN/A
6:50 PM79 °FPassing clouds.7 mph51%29.80 "HgN/A
6:20 PM82 °FPassing clouds.9 mph42%29.80 "HgN/A
5:50 PM84 °FPassing clouds.10 mph37%29.77 "HgN/A
5:20 PM84 °FPassing clouds.9 mph37%29.77 "HgN/A
4:50 PM86 °FPassing clouds.10 mph38%29.77 "HgN/A
4:20 PM86 °FPassing clouds.12 mph33%29.77 "HgN/A
3:50 PM86 °FPassing clouds.12 mph35%29.77 "HgN/A
3:20 PM86 °FScattered clouds.13 mph38%29.77 "HgN/A
2:50 PM86 °FScattered clouds.10 mph38%29.77 "HgN/A
2:20 PM88 °FScattered clouds.10 mph33%29.80 "HgN/A
1:50 PM88 °FPassing clouds.9 mph31%29.80 "HgN/A
1:20 PM88 °FPassing clouds.7 mph29%29.80 "HgN/A
12:50 PM88 °FPassing clouds.6 mph25%29.80 "HgN/A
12:20 PM86 °FPassing clouds.5 mph33%29.80 "HgN/A
11:50 AM84 °FPassing clouds.5 mph37%29.83 "HgN/A
11:20 AM84 °FPassing clouds.5 mph43%29.83 "HgN/A
10:50 AM82 °FPassing clouds.5 mph45%29.83 "HgN/A
10:20 AM82 °FPassing clouds.2 mph42%29.83 "HgN/A
9:50 AM79 °FPassing clouds.6 mph45%29.83 "HgN/A
9:20 AM79 °FPassing clouds.6 mph48%29.83 "HgN/A
8:50 AM75 °FPassing clouds.7 mph54%29.83 "HgN/A
8:20 AM73 °FPassing clouds.7 mph57%29.83 "HgN/A
7:50 AM73 °FPassing clouds.6 mph61%29.83 "HgN/A
7:20 AM72 °FPassing clouds.3 mph65%29.83 "HgN/A
6:50 AM66 °FPassing clouds.5 mph78%29.80 "HgN/A
6:20 AM66 °FPassing clouds.6 mph78%29.80 "HgN/A
5:50 AM66 °FPassing clouds.6 mph78%29.80 "HgN/A
5:20 AM66 °FPassing clouds.7 mph78%29.80 "HgN/A
4:50 AM68 °FPassing clouds.8 mph73%29.80 "HgN/A
4:20 AM68 °FPassing clouds.5 mph78%29.80 "HgN/A
3:50 AM68 °FPassing clouds.5 mph73%29.80 "HgN/A
3:20 AM70 °FPassing clouds.5 mph69%29.80 "HgN/A
2:50 AM70 °FPassing clouds.3 mph69%29.80 "HgN/A
2:20 AM70 °FPassing clouds.2 mph69%29.80 "HgN/A
1:50 AM68 °FPassing clouds.7 mph73%29.83 "HgN/A
1:20 AM70 °FPassing clouds.6 mph64%29.83 "HgN/A
Weather by CustomWeather, © 2014

See weather overviewHow to use our weather pages